Tracking 19564 objects as of 19-Mar-2019
HD Live streaming from Space Station
objects crossing your sky now

OBJECT K

Track OBJECT K now!
10-day predictions


NORAD ID: 43728
Int'l Code: 2018-096K
Perigee: 481.9 km
Apogee: 505.0 km
Inclination: 97.5 °
Period: 94.3 minutes
Semi major axis: 6864 km
RCS: Unknown
Launch date: November 29, 2018
Source: (TBD)
Launch site: SRIHARIKOTA (SRI)
aabbcc
Your satellite tracking list
Your tracking list is empty




NASA's NSSDC Master Catalog

Two Line Element Set (TLE):
1 43728U 18096K   19077.90869035 +.00002167 +00000-0 +85621-4 0  9994
2 43728 097.4698 147.9887 0016773 302.1239 057.8371 15.26493368016732
Source of the keplerian elements: AFSPC